Vero Beach, FL

9:27 PM EDT on July 23, 2017 (GMT -0400)
Vero Beach Municipal

Weather History for KVRB - January, 2012

Change the Weather History Date:

Thursday, January 5, 2012

  Actual Average Record
Temperature  
Mean Temperature 50 °F 62 °F  
Max Temperature 67 °F 72 °F 85 °F (1997)
Min Temperature 32 °F 52 °F 29 °F (2001)
Degree Days  
Heating Degree Days 15 5  
Month to date heating degree days 56 25  
Since 1 July heating degree days 96 160  
Cooling Degree Days 0 2  
Month to date cooling degree days 3 10  
Year to date cooling degree days 3 10  
Moisture  
Dew Point 38 °F    
Average Humidity 63    
Maximum Humidity 86    
Minimum Humidity 39    
Precipitation  
Precipitation 0.00 in 0.08 in 0.78 in (2001)
Month to date precipitation 0.00 0.41  
Year to date precipitation 0.00 0.41  
Sea Level Pressure  
Sea Level Pressure 30.26 in    
Wind  
Wind Speed 5 mph (NW)    
Max Wind Speed 13 mph    
Max Gust Speed 18 mph    
Visibility 10 miles    
Events      
T = Trace of Precipitation, MM = Missing Value Source: NWS Daily Summary

Daily Weather History Graph

Daily Weather History Graph

Search for Another Location

Airport or City:

Trip Planner

Search our weather history database for the weather conditions in past years. The results will help you decide how hot, cold, wet, or windy it might be!

Date:

Astronomy

Jan. 05, 2012 Rise Set
Actual Time 7:13 AM EST 5:40 PM EST
Civil Twilight 6:47 AM EST 6:06 PM EST
Nautical Twilight 6:18 AM EST 6:35 PM EST
Astronomical Twilight 5:50 AM EST 7:03 PM EST
Moon 2:43 PM EST (1/5) 3:57 AM EST (1/5)
Length of Visible Light 11h 18m
Length of Day
10h 27m
Waxing Gibbous, 87% of the Moon is Illuminated
Jan 5
Waxing Gibbous
Jan 9
Full
Jan 16
Last Quarter
Jan 23
New
Jan 30
First Quarter

Hourly Weather History & Observations

Time (EST) Temp. Windchill Dew Point Humidity Pressure Visibility Wind Dir Wind Speed Gust Speed Precip Events Conditions
12:53 AM 41.0 °F - 32.0 °F 70% 30.29 in 10.0 mi Calm Calm - N/A   Clear
1:53 AM 37.0 °F - 32.0 °F 82% 30.30 in 10.0 mi Calm Calm - N/A   Clear
2:53 AM 43.0 °F 38.8 °F 28.9 °F 58% 30.29 in 10.0 mi NW 6.9 mph - N/A   Clear
3:53 AM 39.0 °F 35.7 °F 30.0 °F 70% 30.28 in 10.0 mi WNW 4.6 mph - N/A   Clear
4:53 AM 35.1 °F 32.2 °F 28.9 °F 78% 30.28 in 10.0 mi West 3.5 mph - N/A   Clear
5:53 AM 35.1 °F 31.0 °F 28.9 °F 78% 30.29 in 10.0 mi NW 4.6 mph - N/A   Clear
6:53 AM 34.0 °F 29.8 °F 28.9 °F 82% 30.29 in 10.0 mi WNW 4.6 mph - N/A   Clear
7:53 AM 36.0 °F 32.1 °F 30.0 °F 79% 30.30 in 10.0 mi West 4.6 mph - N/A   Clear
8:53 AM 46.9 °F - 37.9 °F 71% 30.32 in 10.0 mi NW 9.2 mph - N/A   Clear
9:53 AM 54.0 °F - 41.0 °F 62% 30.33 in 10.0 mi NW 10.4 mph - N/A   Clear
10:53 AM 60.1 °F - 37.9 °F 44% 30.32 in 10.0 mi NNW 11.5 mph - N/A   Clear
11:53 AM 62.6 °F - 37.4 °F 39% 30.29 in 10.0 mi NNW 10.4 mph - N/A   Clear
12:53 PM 64.9 °F - 41.0 °F 42% 30.25 in 10.0 mi NNW 9.2 mph - N/A   Clear
1:53 PM 66.0 °F - 41.0 °F 40% 30.23 in 10.0 mi North 5.8 mph - N/A   Clear
2:53 PM 66.9 °F - 41.0 °F 39% 30.20 in 10.0 mi WNW 9.2 mph 16.1 mph N/A   Clear
3:53 PM 66.0 °F - 42.1 °F 42% 30.20 in 10.0 mi West 6.9 mph - N/A   Clear
4:53 PM 64.0 °F - 44.1 °F 48% 30.20 in 10.0 mi WNW 6.9 mph - N/A   Clear
5:53 PM 57.0 °F - 46.0 °F 67% 30.21 in 10.0 mi Calm Calm - N/A   Clear
6:53 PM 53.1 °F - 46.0 °F 77% 30.22 in 10.0 mi Calm Calm - N/A   Clear
7:53 PM 51.8 °F - 44.6 °F 76% 30.22 in 10.0 mi Calm Calm - N/A   Clear
8:53 PM 50.0 °F - 44.1 °F 80% 30.22 in 10.0 mi Calm Calm - N/A   Clear
9:53 PM 48.9 °F - 44.1 °F 83% 30.23 in 10.0 mi Calm Calm - N/A   Clear
10:53 PM 50.0 °F - 44.1 °F 80% 30.22 in 10.0 mi Calm Calm - N/A   Clear
11:53 PM 46.9 °F - 43.0 °F 86% 30.21 in 10.0 mi WSW 3.5 mph - N/A   Clear